Humidity-temperature Sensor

Selected Measurement Type: Air Temperature

 
Air Temperature [°C]     6 entries per hour
Showing data from 12/22/2016 (00:00:00 Z) to 12/21/2016 (00:01:00 Z)
Previous Next [ Day | 3-Days | 7-Days ]
First Last
Prev [ Day | 3-Days | 7-Days ] Next
First Last

Start Time:     :
End Time:     :     
Time (in GMT) :00 :50 :40 :30 :20 :10
Previous Next [ Day | 3-Days | 7-Days ]
First Last
Prev [ Day | 3-Days | 7-Days ] Next
First Last


123 => good data
MM => data is determined as missing
-- => data not received/configured
Back to Top Back to Top
12/22/2016 00:00 to 23:10 25.44 25.49 25.56 25.59 25.54 25.53
12/21/2016 23:00 to 22:10 25.39 25.54 25.52 25.54 25.53 25.52
12/21/2016 22:00 to 21:10 25.46 25.48 25.36 25.40 25.35 25.32
12/21/2016 21:00 to 20:10 25.29 25.31 25.24 25.18 25.26 25.10
12/21/2016 20:00 to 19:10 25.20 25.24 25.23 25.21 25.24 25.25
12/21/2016 19:00 to 18:10 25.23 25.20 25.15 25.22 25.18 25.27
12/21/2016 18:00 to 17:10 25.18 25.23 25.13 25.09 25.14 25.07
12/21/2016 17:00 to 16:10 25.07 25.04 24.97 24.93 24.86 24.85
12/21/2016 16:00 to 15:10 24.85 24.80 24.62 24.53 24.43 24.61
12/21/2016 15:00 to 14:10 24.54 24.64 24.63 24.54 24.57 24.67
12/21/2016 14:00 to 13:10 24.61 24.61 24.62 24.55 24.66 24.64
12/21/2016 13:00 to 12:10 24.56 24.57 24.51 24.59 24.59 24.67
12/21/2016 12:00 to 11:10 24.59 24.58 24.56 24.56 24.73 24.64
12/21/2016 11:00 to 10:10 24.78 24.71 24.68 24.73 24.58 24.67
12/21/2016 10:00 to 9:10 24.65 24.83 24.91 24.71 24.76 24.75
12/21/2016 09:00 to 8:10 24.82 24.84 24.87 24.89 24.92 24.94
12/21/2016 08:00 to 7:10 24.89 24.94 24.89 24.85 24.87 24.98
12/21/2016 07:00 to 6:10 24.92 24.89 24.90 24.80 24.83 24.85
12/21/2016 06:00 to 5:10 24.91 24.92 24.96 24.87 24.87 24.96
12/21/2016 05:00 to 4:10 24.91 24.98 25.00 25.10 25.17 25.17
12/21/2016 04:00 to 3:10 25.19 25.21 25.26 25.21 25.18 25.12
12/21/2016 03:00 to 2:10 25.14 25.22 25.27 25.21 25.26 25.25
12/21/2016 02:00 to 1:10 25.26 25.21 25.28 25.49 25.36 25.50
12/21/2016 01:00 to 0:10 25.43 25.36 25.44 25.40 25.27 25.33